Location: Star Camp Observatory
(34.2910°N, 116.3827°W)
Time: 04:46:49
(UTC-08:00)

Envisat - Pass Details

Date: 20 November 2019
Orbit: 764 x 766 km, 98.1° (Epoch: 13 December)

Event Time Altitude Azimuth Distance (km) Brightness Sun altitude
Rises 16:57:18 0° 137° (SE) 3,218 6.0 -4.4°
Reaches altitude 10° 16:59:54 10° 125° (SE) 2,295 5.1 -4.9°
Maximum altitude 17:04:03 26° 69° (ENE) 1,461 3.9 -5.7°
Drops below altitude 10° 17:08:14 10° 14° (NNE) 2,306 5.2 -6.5°
Sets 17:10:51 0° 2° (N) 3,235 6.0 -7.0°
